Location: Caltech
(34.1382°N, 118.1253°W)
Time: 22:48:36
(UTC-07:00)

ERBS - Visible Passes

Search period start: 29 March 2015 00:00
Search period end: 08 April 2015 00:00
Orbit: 452 x 474 km, 57.0° (Epoch: 29 March)

Date Brightness Start Highest point End Pass type
(mag) Time Alt. Az. Time Alt. Az. Time Alt. Az.
01 Apr 5.1 21:33:35 10° NNW 21:34:38 18° NNW 21:34:38 18° NNW visible
02 Apr 3.9 21:00:26 10° NNW 21:02:46 28° NNE 21:02:46 28° NNE visible
03 Apr 3.7 20:27:20 10° NNW 20:30:22 25° NE 20:30:57 24° ENE visible
03 Apr 5.9 22:04:39 10° WNW 22:04:50 11° WNW 22:04:50 11° WNW visible
04 Apr 4.2 19:54:16 10° N 19:56:56 19° NE 19:59:10 12° E visible
04 Apr 4.6 21:31:01 10° WNW 21:33:03 25° W 21:33:03 25° W visible
05 Apr 3.2 20:57:27 10° NW 21:00:56 45° SW 21:01:21 43° SSW visible
06 Apr 2.7 20:23:58 10° NW 20:27:33 67° SW 20:29:43 22° SSE visible
07 Apr 2.4 19:50:30 10° NW 19:54:06 84° NE 19:57:43 10° SE visible
